Location: Bremen
(53.0793°N, 8.8017°E)
Time: 06:34:10
(UTC+02:00)

Tiros 1 - Pass Details

Date: 20 April 2024
Orbit: 624 x 657 km, 48.4° (Epoch: 17 May)

Event Time Altitude Azimuth Distance (km) Brightness Sun altitude
Rises 05:29:51 0° 270° (W) 2,915 - -6.8°
Exits shadow 05:31:16 - 267° (W) 2,378 9.5 -6.6°
Reaches altitude 10° 05:32:16 10° 263° (W) 2,003 9.1 -6.5°
Maximum altitude 05:36:34 40° 194° (SSW) 925 7.7 -5.9°
Drops below altitude 10° 05:40:51 10° 125° (SE) 1,993 10.1 -5.4°
Sets 05:43:15 0° 118° (ESE) 2,898 11.0 -5.0°
